770  
ASUS41 KBOX 060604  
RWRBOX  
 
REGIONAL WEATHER ROUNDUP  
NATIONAL WEATHER SERVICE BOSTON/NORTON MA  
200 AM EDT MON JUL 06 2020  
 
NOTE: "FAIR" INDICATES FEW OR NO CLOUDS BELOW 12,000 FEET WITH NO  
SIGNIFICANT WEATHER AND/OR S TO VISIBILITY
.  
 
MAZALL-060700-  
EASTERN MASSACHUSETTS  
 
CITY SKY/WX TMP DP RH WIND PRES REMARKS
 
BOSTON PTCLDY 64 62 93 E5 29.97R  
6HR MIN TEMP: 64; 6HR MAX TEMP: 74; 6HR PCP: 0.11;  
 
BEVERLY FOG 63 62 97 N5 29.96S VSB 3/4  
LAWRENCE CLOUDY 65 64 97 N5 29.99R  
BEDFORD CLOUDY 68 66 93 CALM 29.95S FOG  
BLUE HILL NOT AVBL  
NORWOOD PTCLDY 64 61 90 CALM 29.96R FOG  
MARSHFIELD CLOUDY 66 66 100 CALM 29.95F  
PLYMOUTH PTCLDY 66 65 96 CALM 29.96S  
TAUNTON MOCLDY 69 66 90 CALM 29.95F  
NEW BEDFORD MOCLDY 70 70 100 SE5 29.95F  

 
 
MAZALL-060700-  
CAPE COD AND THE ISLANDS  
 
CITY SKY/WX TMP DP RH WIND PRES REMARKS
 
FALMOUTH CLOUDY 68 68 100 SW6 29.97F  
HYANNIS MOCLDY 70 68 93 CALM 29.96F THUNDER  
CHATHAM CLOUDY 67 65 93 CALM 29.99F  
PROVINCETOWN MOCLDY 64 63 96 SE7 29.96F  
NANTUCKET CLOUDY 67 66 97 NW9 30.01R FOG  
MARTHAS VNYRD FOG 68 68 100 SE3 29.98F VSB 1  

 
 
MAZALL-060700-  
CENTRAL AND WESTERN MASSACHUSETTS  
 
CITY SKY/WX TMP DP RH WIND PRES REMARKS
 
WORCESTER CLEAR 65 59 81 CALM 29.99S  
6HR MIN TEMP: 65; 6HR MAX TEMP: 78;  
 
FITCHBURG PTCLDY 64 62 93 NW3 29.98S  
ORANGE CLEAR 64 61 90 CALM 29.99S  
SPRINGFIELD PTCLDY 66 64 93 CALM 29.95S  
WESTFIELD PTCLDY 68 64 87 NW3 29.96R  
NORTH ADAMS CLEAR 62 59 90 CALM 29.99R  
PITTSFIELD PTCLDY 66 59 78 CALM 29.99S  

 
 
RIZALL-060700-  
RHODE ISLAND  
 
CITY SKY/WX TMP DP RH WIND PRES REMARKS
 
PROVIDENCE PTCLDY 71 70 96 CALM 29.95S  
6HR MIN TEMP: 71; 6HR MAX TEMP: 73;  
 
NEWPORT FOG 72 70 93 S5 29.96F VSB 1  
BLOCK ISLAND CLOUDY 70 69 97 SW13 29.96F  
SMITHFIELD PTCLDY 66 66 100 CALM 29.97S FOG  
WESTERLY CLOUDY 73 67 81 CALM 29.96S HAZE  

 
 
CTZALL-060700-  
CONNECTICUT  
 
CITY SKY/WX TMP DP RH WIND PRES REMARKS
 
BRADLEY INTL MOCLDY 68 62 81 NW3 29.95S  
6HR MIN TEMP: 68; 6HR MAX TEMP: 85;  
 
HARTFORD PTCLDY 74 69 85 CALM 29.95R  
BRIDGEPORT CLEAR 75 70 84 SW3 29.95S  
GROTON PTCLDY 70 69 97 SW3 29.94S  
NEW HAVEN CLEAR 73 70 90 SW3 29.95S FOG  
CHESTER NOT AVBL  
MERIDEN CLEAR 70 67 90 CALM 29.95S  
WILLIMANTIC PTCLDY 68 67 96 NE3 29.96R FOG  
OXFORD CLEAR 69 67 93 N3 29.99S  

 
 
MEZ002-015-021-024-NHZ003-005-008-011-012-014-VTZ005-008-060700-  
NORTHERN NEW ENGLAND  
 
CITY SKY/WX TMP DP RH WIND PRES REMARKS
 
PORTLAND ME FOG 61 59 93 E7 29.99S VSB 3/4  
6HR MIN TEMP: 61; 6HR MAX TEMP: 66; 6HR PCP: 0.35;  
 
BANGOR ME CLOUDY 57 54 89 S8 29.99F  
CONCORD NH CLOUDY 65 65 100 CALM 29.98R  
MANCHESTER NH CLOUDY 66 63 90 N3 29.96S  
NASHUA NH CLOUDY 69 69 100 NE3 29.97S  
PORTSMOUTH NH CLOUDY 64 64 100 CALM 29.96 FOG  
JAFFREY NH PTCLDY 61 59 93 CALM 30.00S  
KEENE NH PTCLDY 61 60 97 CALM 29.99S  
BURLINGTON VT CLEAR 65 61 87 CALM 30.00S  
MT. WASHINGTON FOG 46 46 100 NW20 N/A VSB 1/8  

 
 
NYZ052-076-060700-  
EASTERN NEW YORK  
 
CITY SKY/WX TMP DP RH WIND PRES REMARKS
 
ALBANY PTCLDY 71 59 65 CALM 29.97S  
6HR MIN TEMP: 70; 6HR MAX TEMP: 85;  
 
NEW YORK CITY MOCLDY 84 64 50 W5 29.95S  
6HR MIN TEMP: 80; 6HR MAX TEMP: 86;  
 

 
 
ANZALL-060700-  
MARINE OBSERVATIONS  
 
STATION/POSITION TIME TEMP WIND PRES VSBY WAVE
 
AIR SEA DIR/SP/G HT/PER  
(UTC) (F) (DEG/KT/KT) (MB) (MI) (FT/S)  
BOSTON BUOY 0450 66 66 120/ 8/ 10 1012.7 2/ 4  
BUZZARDS BAY 0500 210/ 16/ 17 1014.7F  
NANTUCKET SOUND 0540 69 71 300/ 6/ 8 1014.6R  
MASS BAY-STELLWA 0504 64 120/ 4/ 6 1011.7 1 7/8 2/ 8  
ISLE OF SHOALS 0500 65 120/ 4/ 5 1014.1R  
S OF BLOCK IS 0526 67 N/A 3/ 4  

 
   
.....................KEY......................
 
 
SKY/WX - SKY CONDITION/PRESENT WEATHER  
TMP - TEMPERATURE IN FAHRENHEIT  
DWPT - DEWPOINT IN FAHRENHEIT  
RH - RELATIVE HUMIDITY IN PERCENT  
WIND - DIRECTION AND SPEED IN MPH  
PRES - MEAN SEA LEVEL PRESSURE IN INCHES OF HG  
WCI - WIND CHILL INDEX  
VSB - VISIBILITY IN MILES  
HX - HEAT INDEX  
TC - TEMPERATURE IN CELSIUS  
VRB - VARIABLE WIND DIRECTION  
N/A - NOT AVAILABLE  
 
 
CLICK HERE TO GO TO PREVIOUS BULLETINS.

The Nexlab MA Page
The Nexlab RI Page
The Nexlab NH Page
The Nexlab CT Page Main Text Page